Weather History for Skagway, AK

Change the Weather History Date:

Thursday, September 13, 2012

  Actual Average Record
Temperature  
Mean Temperature 49 °F -  
Max Temperature 54 °F 54 °F 73 °F (1985)
Min Temperature 44 °F 43 °F 26 °F (1992)
Degree Days  
Heating Degree Days 16    
Moisture  
Dew Point 46 °F    
Average Humidity 92    
Maximum Humidity 100    
Minimum Humidity 66    
Precipitation  
Precipitation 0.98 in - - ()
Sea Level Pressure  
Sea Level Pressure 29.76 in    
Wind  
Wind Speed 3 mph (SW)    
Max Wind Speed 15 mph    
Max Gust Speed -    
Visibility 8 miles    
Events Rain    
Averages and records for this station are not official NWS values.
T = Trace of Precipitation, MM = Missing Value Source: NWS Daily Summary

Daily Weather History Graph

Daily Weather History Graph

Search for Another Location

Airport:

Trip Planner

Search our weather history database for the weather conditions in past years. The results will help you decide how hot, cold, wet, or windy it might be!

Date:

Astronomy

Sep. 13, 2012 Rise Set
Actual Time 6:26 AM AKDT 7:25 PM AKDT
Civil Twilight 5:44 AM AKDT 8:07 PM AKDT
Nautical Twilight 4:53 AM AKDT 8:58 PM AKDT
Astronomical Twilight 3:54 AM AKDT 9:56 PM AKDT
Moon 3:27 AM AKDT (9/13) 6:08 PM AKDT (9/13)
Length of Visible Light 14h 22m
Length of Day
12h 59m
Waning Crescent, 6% of the Moon is Illuminated
Sep 13
Waning Crescent
Sep 15
New
Sep 22
First Quarter
Sep 29
Full
Oct 7
Last Quarter

Hourly Weather History & Observations

Time (AKDT) Temp. Windchill Dew Point Humidity Pressure Visibility Wind Dir Wind Speed Gust Speed Precip Events Conditions
12:53 AM 54.0 °F - 43.0 °F 66% 29.93 in 10.0 mi SSW 15.0 mph - N/A   Overcast
1:53 AM 53.1 °F - 44.1 °F 71% 29.93 in 10.0 mi Calm Calm - N/A   Overcast
2:53 AM 50.0 °F - 46.0 °F 86% 29.92 in 9.0 mi North 3.5 mph - 0.00 in Rain Light Rain
3:53 AM 48.0 °F - 46.0 °F 93% 29.92 in 10.0 mi Calm Calm - 0.01 in   Overcast
4:25 AM 48.2 °F - 46.4 °F 93% 29.91 in 10.0 mi Calm Calm - 0.00 in   Overcast
4:53 AM 48.0 °F - 46.0 °F 93% 29.91 in 10.0 mi Calm Calm - 0.00 in   Overcast
5:53 AM 46.9 °F - 46.0 °F 97% 29.90 in 10.0 mi Calm Calm - N/A   Overcast
6:05 AM 46.4 °F - 46.4 °F 100% 29.89 in 10.0 mi Calm Calm - N/A   Overcast
6:53 AM 46.9 °F - 45.0 °F 93% 29.89 in 10.0 mi Calm Calm - N/A   Overcast
7:53 AM 48.0 °F - 46.0 °F 93% 29.87 in 10.0 mi Calm Calm - 0.01 in   Overcast
8:53 AM 48.0 °F - 46.0 °F 93% 29.86 in 10.0 mi Calm Calm - 0.00 in   Overcast
9:53 AM 46.9 °F - 45.0 °F 93% 29.86 in 10.0 mi Calm Calm - 0.00 in   Overcast
10:09 AM 46.4 °F - 46.4 °F 100% 29.85 in 10.0 mi Calm Calm - N/A   Overcast
10:53 AM 46.9 °F - 45.0 °F 93% 29.84 in 10.0 mi Calm Calm - 0.00 in   Overcast
11:48 AM 46.4 °F - 44.6 °F 93% 29.81 in 10.0 mi Calm Calm - 0.00 in   Overcast
11:53 AM 46.9 °F - 46.0 °F 97% 29.81 in 10.0 mi Calm Calm - 0.00 in   Overcast
12:53 PM 50.0 °F - 46.9 °F 89% 29.77 in 10.0 mi WSW 4.6 mph - N/A   Overcast
1:53 PM 48.0 °F - 46.0 °F 93% 29.75 in 10.0 mi SW 3.5 mph - 0.00 in Rain Light Rain
2:53 PM 46.9 °F - 46.0 °F 97% 29.71 in 7.0 mi SW 3.5 mph - 0.03 in Rain Light Rain
3:53 PM 48.0 °F - 46.0 °F 93% 29.68 in 6.0 mi SW 3.5 mph - 0.04 in Rain Light Rain
4:53 PM 48.0 °F - 46.9 °F 96% 29.65 in 4.0 mi Calm Calm - 0.07 in Rain Rain
5:27 PM 50.0 °F - 48.2 °F 94% 29.62 in 2.5 mi Calm Calm - 0.02 in Rain Light Rain
5:36 PM 50.0 °F - 48.2 °F 94% 29.62 in 3.0 mi Calm Calm - 0.03 in Rain Light Rain
5:46 PM 50.0 °F - 48.2 °F 94% 29.60 in 2.5 mi Calm Calm - 0.03 in Rain Light Rain
5:53 PM 50.0 °F - 48.0 °F 93% 29.60 in 3.0 mi Calm Calm - 0.03 in Rain Light Rain
6:53 PM 48.9 °F - 48.0 °F 97% 29.59 in 3.0 mi NNE 3.5 mph - 0.15 in Rain Heavy Rain
7:53 PM 48.0 °F - 46.0 °F 93% 29.56 in 5.0 mi NNE 6.9 mph - 0.11 in Rain Rain
8:53 PM 48.0 °F - 45.0 °F 89% 29.57 in 5.0 mi East 3.5 mph - 0.10 in Rain Rain
9:53 PM 46.9 °F - 45.0 °F 93% 29.59 in 5.0 mi Calm Calm - 0.20 in Rain Rain
10:53 PM 46.0 °F - 45.0 °F 96% 29.62 in 3.0 mi Calm Calm - 0.15 in Rain Rain
11:03 PM 44.6 °F 42.2 °F 42.8 °F 93% 29.62 in 5.0 mi SW 4.6 mph - 0.01 in Rain Light Rain
11:53 PM 46.0 °F - 43.0 °F 89% 29.66 in 7.0 mi Calm Calm - 0.08 in Rain Light Rain